User: anonymous   Login
Location: Unspecified
(0.0000°N, 0.0000°E)
Time: 17:35:09
(UTC+00:00)
Language:

UPM/SAT 1 - Orbit

View from above orbital plane
View from above orbital plane
View from above satellite
View from above satellite

Ground track
Ground track

The orbit data is extracted from the following two-line orbital elements,

1 23607U 95033C   18018.88180878 +.00000034 +00000-0 +12470-4 0  9999
2 23607 098.3678 224.9380 0004914 318.9384 041.1455 14.78267198211718
Epoch (UTC): 18 January 2018 21:09:48
Eccentricity: 0.0004914
inclination: 98.3678°
perigee height: 631 km
apogee height: 638 km
right ascension of ascending node: 224.9380°
argument of perigee: 318.9384°
revolutions per day: 14.78267198
mean anomaly at epoch: 41.1455°
orbit number at epoch: 21171

The dashed part of the orbit path shows where the satellite is in the earth's shadow,  

DLR